[[{"header":{"parameterUnit":"m.s-1","parameterCategory":1,"la1":30.2991,"la2":30.254,"lo1":-89.0895,"lo2":-89.0444,"dy":0.0017,"dx":0.0017,"nx":28,"ny":28,"refTime":"2025-01-05T03:00:00:Z","depth":0,"parameterNumber":2,"parameterNumberName":"U-component_of_WINDS"},"data":[0,0,0,0,0,0,0,0,0,0,0,0,0,0,0,0,0,0,0,0,0,0,0,0,0,0,0,0,0,0,0,0,0,0,0,0,0,0,0,0,0,0,0,0,0,0,0,0,0,0,0,0,0,0,0,0,0,0,7.474,7.4743,0,7.5023,7.5026,7.5029,7.4999,7.4995,7.499,7.4986,7.5271,7.5283,7.5294,0,0,0,0,0,0,0,0,0,0,0,0,0,7.4172,7.4183,7.474,7.4743,7.4747,7.5022,7.5026,7.503,7.5,7.4995,7.4989,7.4984,7.5267,7.5281,7.5295,0,0,0,0,0,0,0,0,0,0,0,0,0,7.4433,7.4186,7.4739,7.4765,7.477,7.5021,7.5026,7.5031,7.5001,7.4995,7.4988,7.4982,7.5263,7.528,7.5297,7.5539,0,0,7.5351,7.5359,0,0,0,0,0,0,0,0,7.4418,7.4454,7.4758,7.4764,7.477,7.4969,7.493,7.5201,7.5003,7.4913,7.4986,7.4978,7.5176,7.52,7.5268,7.5552,7.5564,7.5352,7.5363,7.5371,7.5376,0,0,0,0,0,0,0,7.44,7.4441,7.4851,7.4762,7.477,7.4762,7.4792,7.4981,7.5078,7.4921,7.4919,7.4953,7.5178,7.5251,7.5274,7.5569,7.5352,7.5368,7.5378,7.5385,7.6068,7.6076,0,0,0,0,0,0,7.4376,7.4427,7.4842,7.486,7.4574,7.4778,7.4811,7.4912,7.5076,7.5095,7.4959,7.4951,7.5224,7.5253,7.5284,7.558,7.5371,7.5387,7.5397,7.6061,7.607,7.6078,0,0,0,0,0,0,7.4364,7.4414,7.4831,7.4643,7.4696,7.4795,7.4908,7.4921,7.4994,7.5105,7.5122,7.5016,7.522,7.5259,7.5477,7.559,7.5395,7.5411,7.6052,7.6064,7.6074,7.6173,0,0,0,0,0,0,7.4348,7.4409,7.4503,7.4646,7.4706,7.5021,7.4915,7.4931,7.5025,7.5017,7.5163,7.5181,7.5218,7.5451,7.5494,7.561,7.5425,7.6042,7.6057,7.607,7.6161,7.6187,7.6209,0,0,0,0,0,7.4328,7.4518,7.4508,7.4558,7.4825,7.5027,7.5061,7.5102,7.5034,7.5129,7.52,7.5176,7.557,7.5473,7.5522,7.5645,7.6035,7.6053,7.6069,7.615,7.6182,7.6209,0,0,0,0,0,0,7.4384,7.4537,7.4527,7.4769,7.4886,7.5022,7.5142,7.5134,7.527,7.5257,7.53,7.5333,7.5553,7.562,7.551,7.5889,7.5793,7.5821,7.5837,7.5869,7.5893,7.5873,7.5439,0,0,0,0,0,7.4424,7.4577,7.4702,7.4903,7.4962,7.5043,7.5132,7.5153,7.5275,7.5323,7.541,7.5528,7.5679,7.5777,7.5921,7.6169,7.6201,7.6278,7.6302,7.6322,7.6346,7.6484,7.6521,7.6134,7.6134,7.6134,0,0,7.451,7.4612,7.4705,7.4917,7.501,7.5167,7.5084,7.5252,7.537,7.5348,7.5561,7.5629,7.5763,7.5998,7.6105,7.606,7.6459,7.6343,7.6358,7.6372,7.6506,7.6542,7.6575,7.6146,7.6144,7.6142,0,0,7.4746,7.4838,7.5018,7.5113,7.5255,7.5308,7.5351,7.5489,7.5535,7.5748,7.5737,7.5875,7.6133,7.623,7.6313,7.6588,7.6572,7.6634,7.6762,7.6896,7.6927,7.6954,7.7055,7.709,7.6657,7.6657,7.6657,0,7.4834,7.5071,7.5111,7.5283,7.5377,7.5367,7.555,7.5639,7.5821,7.5886,7.5833,7.6159,7.6248,7.6506,7.6574,7.664,7.6692,7.6618,7.6919,7.6947,7.6973,7.707,7.7107,7.6664,7.6663,7.6662,7.6662,0,7.5174,7.5339,7.5466,7.5645,7.5753,7.5929,7.5996,7.61,7.6112,7.6169,7.6388,7.6495,7.6662,7.6724,7.6736,7.6986,7.6954,7.691,7.6815,7.7016,7.7108,7.7145,7.6674,7.6671,7.6669,7.6668,0,0,7.5454,7.5654,7.5701,7.5783,7.594,7.6067,7.6243,7.6409,7.6499,7.6623,7.6773,7.6992,7.6954,7.7048,7.707,7.7188,7.7403,7.713,7.7134,7.7179,7.7687,7.7721,7.7763,7.7392,7.7399,7.7405,7.7676,0,7.5709,7.6023,7.6064,7.6342,7.6496,7.6489,7.6642,7.6755,7.6813,7.6951,7.7015,7.7171,7.7107,7.7164,7.728,7.7352,7.7506,7.7333,7.7532,7.7538,7.7501,7.7811,7.7847,7.8099,7.7712,7.7718,7.7722,0,7.6048,7.6186,7.648,7.6619,7.6684,7.6822,7.6979,7.711,7.7238,7.7272,7.7379,7.7387,7.7569,7.7465,7.7716,7.7598,7.7681,7.7729,7.7739,7.7761,7.7644,7.7844,7.8179,7.8218,7.7779,7.7774,7.777,0,7.6227,7.6486,7.6696,7.6766,7.6932,7.7029,7.7102,7.7223,7.7321,7.7457,7.7521,7.7674,7.776,7.7878,7.7928,7.7847,7.8177,7.8077,7.8211,7.821,7.8283,7.8278,7.864,7.8332,7.8332,7.8331,7.833,0,7.6509,7.669,7.6779,7.6909,7.7112,7.7157,7.7356,7.7425,7.7533,7.7676,7.7677,7.781,7.7867,7.8009,7.8048,7.8251,7.8288,7.8322,7.833,7.8324,7.832,7.8381,7.8366,7.8341,7.8339,7.8337,7.8335,0,7.6744,7.6811,7.7041,7.718,7.7219,7.7362,7.7481,7.7606,7.7663,7.7844,7.7889,7.7978,7.8146,7.8207,7.8409,7.8435,7.8672,7.8665,7.8631,7.8633,7.8766,7.8754,7.9181,7.9241,7.8891,7.8894,7.8897,0,7.6921,7.7061,7.7216,7.7313,7.739,7.7545,7.7646,7.7695,7.78,7.7957,7.8064,7.8231,7.8367,7.8635,7.8717,7.8873,7.8871,7.901,7.8894,7.8883,7.8876,7.8869,7.8884,7.9032,7.9036,7.9039,7.9041,0,7.7229,7.7256,7.7402,7.7561,7.7682,7.7809,7.7931,7.801,7.8078,7.8195,7.8368,7.8474,7.8683,7.8849,7.9008,7.9082,7.9074,7.9077,7.9117,7.9112,7.9088,7.9106,7.8693,7.9067,7.9064,7.9063,7.9061,7.906,7.7443,7.7568,7.7698,7.7861,7.7959,7.8074,7.82,7.8274,7.842,7.8596,7.8615,7.8801,7.8925,7.9139,7.922,7.9366,7.9328,7.9385,7.94,7.9414,7.9425,7.9063,7.9394,7.9394,7.9393,7.9392,7.9392,0,7.7754,7.7838,7.7987,7.8161,7.829,7.8272,7.8407,7.8515,7.868,7.8798,7.8933,7.9132,7.9294,7.9389,7.9551,7.9649,7.965,7.969,7.9685,7.9702,7.9449,7.94,7.9687,7.9687,7.9687,7.9687,7.9687,7.9687,7.7932,7.8144,7.8186,7.8446,7.8527,7.8713,7.8792,7.8898,7.8992,7.9216,7.9351,7.9413,7.9522,7.9692,7.9839,7.9862,7.9923,7.9968,7.9988,7.975,7.972,7.9691,7.9645,7.998,7.998,8.0231,8.0233,8.0235]},{"header":{"parameterUnit":"m.s-1","parameterCategory":1,"la1":30.2991,"la2":30.254,"lo1":-89.0895,"lo2":-89.0444,"dy":0.0017,"dx":0.0017,"nx":28,"ny":28,"refTime":"2025-01-05T03:00:00:Z","depth":0,"parameterNumber":3,"parameterNumberName":"V-component_of_WINDS"},"data":[0,0,0,0,0,0,0,0,0,0,0,0,0,0,0,0,0,0,0,0,0,0,0,0,0,0,0,0,0,0,0,0,0,0,0,0,0,0,0,0,0,0,0,0,0,0,0,0,0,0,0,0,0,0,0,0,0,0,-5.6691,-5.6683,0,-5.588,-5.5871,-5.5862,-5.5524,-5.5526,-5.5528,-5.553,-5.4649,-5.4625,-5.46,0,0,0,0,0,0,0,0,0,0,0,0,0,-5.7895,-5.7875,-5.6693,-5.6682,-5.6672,-5.5882,-5.5871,-5.5859,-5.5524,-5.5526,-5.5528,-5.553,-5.4657,-5.4628,-5.4597,0,0,0,0,0,0,0,0,0,0,0,0,0,-5.7256,-5.7868,-5.6694,-5.6411,-5.6377,-5.5884,-5.587,-5.5856,-5.5523,-5.5526,-5.5529,-5.5531,-5.4667,-5.4631,-5.4593,-5.4307,0,0,-5.4478,-5.4462,0,0,0,0,0,0,0,0,-5.7293,-5.7212,-5.6462,-5.6429,-5.6391,-5.5808,-5.5971,-5.5335,-5.5523,-5.5846,-5.553,-5.5533,-5.5029,-5.4962,-5.4802,-5.4266,-5.4228,-5.4475,-5.4452,-5.4436,-5.4425,0,0,0,0,0,0,0,-5.7338,-5.7245,-5.6369,-5.6452,-5.6408,-5.6305,-5.6218,-5.5849,-5.543,-5.5818,-5.5792,-5.5703,-5.5009,-5.4839,-5.4779,-5.4215,-5.4476,-5.4442,-5.4419,-5.4404,-5.3383,-5.3379,0,0,0,0,0,0,-5.7436,-5.7284,-5.6395,-5.6345,-5.686,-5.6282,-5.6184,-5.5991,-5.5434,-5.5353,-5.5702,-5.569,-5.4902,-5.4823,-5.4746,-5.4364,-5.4436,-5.4401,-5.4379,-5.3387,-5.3382,-5.3377,0,0,0,0,0,0,-5.7463,-5.736,-5.6428,-5.6807,-5.6681,-5.6259,-5.6045,-5.5974,-5.5804,-5.5347,-5.5265,-5.5609,-5.4901,-5.4799,-5.4418,-5.4329,-5.4384,-5.435,-5.3393,-5.3386,-5.3379,-5.3606,0,0,0,0,0,0,-5.7499,-5.7372,-5.7274,-5.6809,-5.6663,-5.6132,-5.604,-5.5956,-5.5746,-5.5723,-5.5238,-5.5159,-5.4895,-5.4477,-5.4381,-5.4278,-5.432,-5.3398,-5.339,-5.3382,-5.3604,-5.3608,-5.3611,0,0,0,0,0,-5.7544,-5.7362,-5.7271,-5.7165,-5.6533,-5.6128,-5.6042,-5.5758,-5.5741,-5.5627,-5.5331,-5.5174,-5.4356,-5.4441,-5.433,-5.4215,-5.3403,-5.3392,-5.3382,-5.3603,-5.3607,-5.3611,0,0,0,0,0,0,-5.7813,-5.7296,-5.7189,-5.6856,-5.654,-5.6073,-5.5923,-5.5773,-5.5443,-5.5434,-5.5077,-5.497,-5.4615,-5.4375,-5.4479,-5.3899,-5.3865,-5.3832,-5.407,-5.407,-5.4074,-5.4136,-5.4289,0,0,0,0,0,-5.7837,-5.7569,-5.7124,-5.6871,-5.672,-5.635,-5.6162,-5.597,-5.5621,-5.5482,-5.5158,-5.4812,-5.4473,-5.4259,-5.3924,-5.3568,-5.3447,-5.3432,-5.3436,-5.3441,-5.3414,-5.3192,-5.3176,-5.3343,-5.3343,-5.3344,0,0,-5.7876,-5.7561,-5.7411,-5.6917,-5.665,-5.6361,-5.6239,-5.5941,-5.5717,-5.543,-5.5054,-5.4803,-5.439,-5.4019,-5.3837,-5.3807,-5.3341,-5.3427,-5.3435,-5.3404,-5.318,-5.3164,-5.3151,-5.3336,-5.3338,-5.3339,0,0,-5.7803,-5.7544,-5.7301,-5.7037,-5.6638,-5.6391,-5.6333,-5.5885,-5.5712,-5.5331,-5.5106,-5.4824,-5.4256,-5.3968,-5.3747,-5.3553,-5.339,-5.3452,-5.3466,-5.3254,-5.324,-5.3227,-5.3145,-5.3122,-5.3428,-5.3428,-5.3429,0,-5.7899,-5.7475,-5.719,-5.6905,-5.6685,-5.6426,-5.6164,-5.5915,-5.5421,-5.5267,-5.5244,-5.4518,-5.4222,-5.3773,-5.3726,-5.3559,-5.3465,-5.3505,-5.3269,-5.3252,-5.3234,-5.3152,-5.3124,-5.3438,-5.3437,-5.3436,-5.3435,0,-5.7606,-5.7312,-5.716,-5.6705,-5.6467,-5.6196,-5.5851,-5.5641,-5.5466,-5.5216,-5.4819,-5.4456,-5.4038,-5.3916,-5.3738,-5.3435,-5.3427,-5.3342,-5.3299,-5.3233,-5.3149,-5.3117,-5.3452,-5.3448,-5.3446,-5.3443,0,0,-5.7684,-5.7073,-5.7021,-5.6805,-5.6342,-5.6099,-5.5804,-5.541,-5.5231,-5.4894,-5.4627,-5.4148,-5.4063,-5.3812,-5.3596,-5.3412,-5.3264,-5.3343,-5.3327,-5.3333,-5.2891,-5.2955,-5.2925,-5.3156,-5.3149,-5.3143,-5.2922,0,-5.7543,-5.7028,-5.6757,-5.6346,-5.6061,-5.5803,-5.5543,-5.5219,-5.4974,-5.468,-5.44,-5.4064,-5.3984,-5.3828,-5.3634,-5.3326,-5.3169,-5.3338,-5.2885,-5.2873,-5.2994,-5.2883,-5.2952,-5.2762,-5.2889,-5.2883,-5.2879,0,-5.7312,-5.6992,-5.6559,-5.6118,-5.5987,-5.5763,-5.5371,-5.5101,-5.4718,-5.455,-5.4269,-5.4056,-5.3714,-5.37,-5.3214,-5.3335,-5.313,-5.2949,-5.2933,-5.2875,-5.287,-5.2813,-5.2695,-5.2665,-5.2826,-5.2831,-5.2834,0,-5.7403,-5.6861,-5.6529,-5.6353,-5.5833,-5.5678,-5.5449,-5.5073,-5.4848,-5.4498,-5.4345,-5.3957,-5.3741,-5.3435,-5.3114,-5.3136,-5.2653,-5.2616,-5.2488,-5.2496,-5.2395,-5.2405,-5.2237,-5.2278,-5.2278,-5.2279,-5.2279,0,-5.7271,-5.7013,-5.6563,-5.6358,-5.6053,-5.5734,-5.5435,-5.5183,-5.4848,-5.4574,-5.4321,-5.4065,-5.3662,-5.3348,-5.3093,-5.272,-5.2626,-5.2466,-5.24,-5.2486,-5.2506,-5.2344,-5.2345,-5.2271,-5.2272,-5.2274,-5.2275,0,-5.7322,-5.7013,-5.6632,-5.6171,-5.6047,-5.5842,-5.5436,-5.5215,-5.4956,-5.4611,-5.4509,-5.4094,-5.3712,-5.3364,-5.2852,-5.2678,-5.2297,-5.2217,-5.2432,-5.2394,-5.2284,-5.2296,-5.1999,-5.1937,-5.2031,-5.2031,-5.2031,0,-5.7258,-5.7055,-5.6573,-5.6379,-5.616,-5.585,-5.5621,-5.529,-5.5058,-5.4602,-5.4431,-5.4034,-5.3699,-5.3095,-5.2735,-5.2337,-5.224,-5.2163,-5.2177,-5.2266,-5.2225,-5.224,-5.221,-5.2166,-5.2166,-5.2167,-5.2168,0,-5.7172,-5.7026,-5.6717,-5.6348,-5.6086,-5.5775,-5.5455,-5.5305,-5.4909,-5.4657,-5.4272,-5.4013,-5.3492,-5.3092,-5.2653,-5.2394,-5.2206,-5.2167,-5.2113,-5.2196,-5.2325,-5.2243,-5.2433,-5.2174,-5.2173,-5.2173,-5.2172,-5.2172,-5.7155,-5.6959,-5.6588,-5.6245,-5.5971,-5.5675,-5.5444,-5.5156,-5.4834,-5.4396,-5.4213,-5.3817,-5.3418,-5.2812,-5.2554,-5.2223,-5.2186,-5.2113,-5.2092,-5.2078,-5.2089,-5.2385,-5.2142,-5.2141,-5.2141,-5.214,-5.214,0,-5.7049,-5.6798,-5.6486,-5.6051,-5.5775,-5.5641,-5.5274,-5.5047,-5.4708,-5.4361,-5.4037,-5.3582,-5.319,-5.2799,-5.2381,-5.2191,-5.2093,-5.2091,-5.2097,-5.2037,-5.2152,-5.2236,-5.2176,-5.2176,-5.2176,-5.2176,-5.2176,-5.2176,-5.6963,-5.6619,-5.6427,-5.5935,-5.5677,-5.53,-5.5101,-5.4818,-5.4539,-5.4049,-5.3728,-5.348,-5.3106,-5.2658,-5.2285,-5.2177,-5.2029,-5.205,-5.1917,-5.2031,-5.2031,-5.2032,-5.2108,-5.2023,-5.2023,-5.1827,-5.1826,-5.1825]}]]